Waarnemingen

Advertentie
Mijn weer
Elsenborn, België (6496): temperatuur & dauwpunt: 15.06.2018 02:00:00 - 21.06.2018 02:00:00 (CEST)Elsenborn, België (6496): windsnelheid & windstoten: 15.06.2018 02:00:00 - 21.06.2018 02:00:00 (CEST)Elsenborn, België (6496): windrichting: 15.06.2018 02:00:00 - 21.06.2018 02:00:00 (CEST)Elsenborn, België (6496): luchtdruk: 15.06.2018 02:00:00 - 21.06.2018 02:00:00 (CEST)Elsenborn, België (6496): zicht: 15.06.2018 02:00:00 - 21.06.2018 02:00:00 (CEST)
Datum & Tijd tt [°C] td [°C] ff [km/u] ff [kn] fx [km/u] fx [kn] dd ppp [hPa] vv [km]
21.06.2018 02:00:00 12,6 11,8 4 2 - - N 1019,2 17
21.06.2018 01:00:00 14,9 13,1 4 2 7 4 N 1019,0 20
21.06.2018 00:00:00 16,5 13,5 4 2 11 6 N 1019,0 20
20.06.2018 23:00:00 16,0 13,7 2 1 - - - 1019,3 10
20.06.2018 22:00:00 17,6 14,0 0 0 7 4 N 1018,7 20
20.06.2018 21:00:00 21,6 13,2 4 2 14 8 N 1017,7 20
20.06.2018 20:00:00 23,5 13,7 7 4 - - WNW 1017,6 20
20.06.2018 19:00:00 23,5 13,3 4 2 14 8 N 1018,0 20
20.06.2018 18:00:00 24,4 13,2 4 2 14 8 N 1018,2 20
20.06.2018 17:00:00 24,7 13,1 4 2 - - N 1018,6 19
20.06.2018 16:00:00 24,8 13,0 7 4 25 14 W 1018,8 20
20.06.2018 15:00:00 24,2 12,8 4 2 18 10 N 1019,5 20
20.06.2018 14:00:00 23,6 13,2 4 2 - - N 1020,1 20
20.06.2018 13:00:00 22,4 13,2 4 2 18 10 N 1020,7 20
20.06.2018 12:00:00 20,9 14,4 7 4 14 8 WZW 1021,3 20
20.06.2018 11:00:00 20,2 14,6 4 2 - - N 1021,7 20
20.06.2018 10:00:00 19,1 14,3 5 3 14 8 ZZW 1022,2 10
20.06.2018 09:00:00 17,8 13,6 4 2 14 8 - 1022,5 10
20.06.2018 08:00:00 16,8 13,9 4 2 - - N 1022,7 20
20.06.2018 07:00:00 15,3 14,2 4 2 4 2 N 1023,1 20
20.06.2018 06:00:00 14,1 13,9 4 2 4 2 N 1023,3 11
20.06.2018 05:00:00 14,6 14,3 4 2 - - N 1023,7 17
20.06.2018 04:00:00 14,8 14,4 4 2 4 2 N 1024,0 19
20.06.2018 03:00:00 15,1 14,5 4 2 4 2 N 1024,2 20
20.06.2018 02:00:00 15,1 14,6 4 2 - - N 1024,5 14
20.06.2018 01:00:00 15,1 14,7 4 2 7 4 N 1024,7 20
20.06.2018 00:00:00 15,3 14,7 4 2 4 2 N 1024,9 20
19.06.2018 23:00:00 15,6 14,7 4 2 - - N 1024,9 20
19.06.2018 22:00:00 16,1 14,8 4 2 4 2 N 1024,5 20
19.06.2018 21:00:00 16,6 14,7 4 2 7 4 N 1024,2 20
19.06.2018 20:00:00 17,0 14,4 4 2 - - N 1024,2 20
19.06.2018 19:00:00 17,1 14,3 4 2 11 6 N 1024,5 20
19.06.2018 18:00:00 17,2 14,2 4 2 11 6 N 1024,5 20
19.06.2018 17:00:00 16,8 14,4 7 4 - - W 1025,0 20
19.06.2018 16:00:00 16,6 14,9 4 2 14 8 N 1025,0 20
19.06.2018 15:00:00 15,8 14,7 4 2 18 10 N 1025,2 2,6
19.06.2018 14:00:00 16,1 14,3 4 2 - - N 1025,0 19
19.06.2018 13:00:00 15,0 14,2 7 4 14 8 WZW 1025,2 7
19.06.2018 12:00:00 15,3 14,5 7 4 18 10 W 1024,9 4,4
19.06.2018 11:00:00 14,9 13,7 4 2 - - N 1024,7 16
19.06.2018 10:00:00 - - - - - - - - -
19.06.2018 09:00:00 - - - - - - - - -
19.06.2018 08:00:00 12,8 12,7 4 2 - - N 1024,5 4,2
19.06.2018 07:00:00 12,6 12,4 4 2 14 8 N 1024,5 5
19.06.2018 06:00:00 12,5 11,9 4 2 11 6 N 1024,0 16
19.06.2018 05:00:00 12,3 11,6 4 2 - - N 1023,5 18
19.06.2018 04:00:00 12,0 11,5 4 2 11 6 N 1023,6 13
19.06.2018 03:00:00 12,6 11,8 4 2 14 8 N 1023,3 14
19.06.2018 02:00:00 12,8 11,6 4 2 - - N 1023,3 19
19.06.2018 01:00:00 13,9 12,4 4 2 18 10 N 1022,8 20
19.06.2018 00:00:00 14,8 13,0 4 2 18 10 N 1022,7 20
18.06.2018 23:00:00 15,6 13,4 4 2 - - N 1022,2 20
18.06.2018 22:00:00 16,0 13,4 4 2 14 8 N 1021,6 20
18.06.2018 21:00:00 17,1 13,2 4 2 18 10 N 1021,2 20
18.06.2018 20:00:00 18,5 13,3 7 4 - - WZW 1020,6 20
18.06.2018 19:00:00 17,8 12,9 7 4 22 12 WZW 1020,7 20
18.06.2018 18:00:00 17,9 13,1 7 4 22 12 WZW 1020,8 20
18.06.2018 17:00:00 17,7 13,3 7 4 - - WZW 1021,1 20
18.06.2018 16:00:00 16,7 13,0 7 4 22 12 WZW 1021,7 20
18.06.2018 15:00:00 17,1 12,3 7 4 22 12 WZW 1021,2 20
18.06.2018 14:00:00 16,3 11,8 7 4 - - WZW 1021,6 20
18.06.2018 13:00:00 17,0 11,5 7 4 22 12 WZW 1021,1 20
18.06.2018 12:00:00 - - - - - - - - -
18.06.2018 11:00:00 - - - - - - - - -
18.06.2018 10:00:00 14,6 10,7 7 4 18 10 ZW 1021,3 20
18.06.2018 09:00:00 13,1 10,6 4 2 14 8 N 1021,6 20
18.06.2018 08:00:00 11,6 10,3 4 2 - - N 1021,7 19
18.06.2018 07:00:00 11,6 9,7 4 2 7 4 N 1021,6 20
18.06.2018 06:00:00 11,3 9,5 4 2 7 4 N 1021,5 20
18.06.2018 05:00:00 11,3 9,4 4 2 - - N 1021,1 20
18.06.2018 04:00:00 10,8 9,6 0 0 4 2 N 1021,5 20
18.06.2018 03:00:00 10,6 9,3 4 2 7 4 N 1021,6 20
18.06.2018 02:00:00 10,8 9,3 4 2 - - N 1021,7 20
18.06.2018 01:00:00 10,1 9,1 4 2 7 4 N 1021,7 20
18.06.2018 00:00:00 11,6 9,3 4 2 11 6 N 1021,5 20
17.06.2018 23:00:00 11,5 9,1 4 2 - - N 1021,3 20
17.06.2018 22:00:00 12,0 8,9 4 2 11 6 - 1020,7 20
17.06.2018 21:00:00 12,3 8,4 4 2 18 10 N 1020,3 20
17.06.2018 20:00:00 13,3 8,0 7 4 - - N 1020,3 20
17.06.2018 19:00:00 13,6 7,3 11 6 22 12 W 1020,0 20
17.06.2018 18:00:00 13,8 7,5 11 6 22 12 W 1019,6 20
17.06.2018 17:00:00 13,8 8,8 11 6 - - W 1019,6 20
17.06.2018 16:00:00 14,1 9,2 11 6 29 16 W 1019,2 20
17.06.2018 15:00:00 14,8 9,4 11 6 29 16 W 1018,7 20
17.06.2018 14:00:00 14,8 9,7 7 4 - - WZW 1018,3 20
17.06.2018 13:00:00 14,7 9,6 11 6 29 16 WZW 1018,3 20
17.06.2018 12:00:00 14,8 10,2 11 6 22 12 WZW 1018,1 16
17.06.2018 11:00:00 14,0 10,3 7 4 - - WZW 1018,3 20
17.06.2018 10:00:00 12,6 10,1 7 4 22 12 WZW 1018,7 18
17.06.2018 09:00:00 12,3 9,7 7 4 14 8 WZW 1018,2 20
17.06.2018 08:00:00 11,5 10,2 4 2 - - N 1018,2 12
17.06.2018 07:00:00 9,5 9,2 4 2 4 2 N 1018,7 9
17.06.2018 06:00:00 7,9 7,8 0 0 4 2 N 1018,8 12
17.06.2018 05:00:00 7,5 7,0 4 2 - - N 1018,8 13
17.06.2018 04:00:00 7,7 7,4 4 2 4 2 N 1018,7 13
17.06.2018 03:00:00 9,0 8,3 4 2 4 2 N 1018,3 15
17.06.2018 02:00:00 9,7 9,0 4 2 - - N 1018,2 18
17.06.2018 01:00:00 10,0 9,7 2 1 4 2 - 1017,7 10
17.06.2018 00:00:00 11,0 9,9 4 2 7 4 N 1017,7 20
16.06.2018 23:00:00 11,6 10,6 4 2 - - N 1017,6 16
16.06.2018 22:00:00 12,8 11,5 4 2 11 6 N 1016,7 19
16.06.2018 21:00:00 14,5 12,3 7 4 14 8 W 1015,7 20
16.06.2018 20:00:00 16,0 13,8 7 4 - - W 1015,2 20
16.06.2018 19:00:00 15,9 15,5 4 2 22 12 N 1014,8 20
16.06.2018 18:00:00 18,8 13,1 7 4 14 8 ZW 1013,8 20
16.06.2018 17:00:00 18,0 13,6 4 2 - - N 1014,6 20
16.06.2018 16:00:00 18,1 12,5 4 2 11 6 N 1014,5 19
16.06.2018 15:00:00 19,2 12,1 4 2 11 6 N 1014,3 20
16.06.2018 14:00:00 17,4 11,7 4 2 - - N 1015,2 20
16.06.2018 13:00:00 18,1 10,5 4 2 18 10 N 1015,2 20
16.06.2018 12:00:00 18,4 10,7 5 3 14 8 Z 1015,3 1,9
16.06.2018 11:00:00 18,5 11,0 4 2 - - N 1015,2 20
16.06.2018 10:00:00 17,6 10,4 4 2 11 6 N 1015,7 20
16.06.2018 09:00:00 16,0 12,4 4 2 4 2 N 1016,0 20
16.06.2018 08:00:00 11,3 10,4 4 2 - - N 1017,2 20
16.06.2018 07:00:00 9,6 9,3 4 2 4 2 N 1017,5 20
16.06.2018 06:00:00 8,3 8,1 4 2 4 2 N 1017,7 19
16.06.2018 05:00:00 8,1 7,8 4 2 - - N 1017,7 15
16.06.2018 04:00:00 8,3 7,9 4 2 4 2 N 1017,8 15
16.06.2018 03:00:00 9,3 9,1 0 0 0 0 N 1018,0 19
16.06.2018 02:00:00 9,9 9,3 4 2 - - N 1018,0 17
16.06.2018 01:00:00 10,8 10,4 4 2 0 0 N 1017,8 20
16.06.2018 00:00:00 12,0 11,2 4 2 0 0 N 1017,3 20
15.06.2018 23:00:00 13,3 12,0 4 2 - - N 1017,2 20
15.06.2018 22:00:00 14,6 12,1 4 2 4 2 N 1016,8 20
15.06.2018 21:00:00 16,0 12,4 0 0 4 2 N 1016,5 20
15.06.2018 20:00:00 17,3 11,7 4 2 - - N 1016,2 20
15.06.2018 19:00:00 18,8 10,3 4 2 11 6 N 1015,7 20
15.06.2018 18:00:00 19,5 10,5 4 2 11 6 N 1015,5 20
15.06.2018 17:00:00 20,4 9,7 4 2 - - N 1015,5 20
15.06.2018 16:00:00 20,6 10,4 4 2 18 10 N 1015,6 20
15.06.2018 15:00:00 18,7 9,7 7 4 22 12 W 1016,1 20
15.06.2018 14:00:00 18,6 9,2 4 2 - - N 1016,2 20
15.06.2018 13:00:00 18,1 10,9 7 4 22 12 W 1016,6 20
15.06.2018 12:00:00 17,3 11,4 4 2 14 8 N 1016,7 20
15.06.2018 11:00:00 15,5 11,3 4 2 - - N 1017,2 20
15.06.2018 10:00:00 14,5 11,3 4 2 11 6 N 1017,3 20
15.06.2018 09:00:00 13,8 11,7 4 2 7 4 N 1017,2 20
15.06.2018 08:00:00 13,3 11,9 4 2 - - N 1017,1 12
15.06.2018 07:00:00 12,3 12,1 4 2 7 4 N 1017,1 6
15.06.2018 06:00:00 12,1 12,0 4 2 4 2 N 1017,0 6
15.06.2018 05:00:00 12,1 12,1 4 2 - - N 1016,7 6
15.06.2018 04:00:00 12,1 12,0 4 2 4 2 N 1016,7 17
15.06.2018 03:00:00 12,3 12,1 4 2 14 8 N 1017,0 19
15.06.2018 02:00:00 12,3 12,2 4 2 - - - 1017,2 2,9

tt = temperatuur
td = dauwpunt
ff = windsnelheid
fx = windstoten
dd = windrichting
ppp = luchtdruk
vv = zicht

Weerstations in de omgeving